Weather History for KPIR - October, 2011

Change the Weather History Date:

Thursday, October 6, 2011

  Actual Average Record
Temperature  
Mean Temperature 68 °F 53 °F  
Max Temperature 77 °F 66 °F 98 °F (1993)
Min Temperature 59 °F 40 °F 19 °F (2012)
Degree Days  
Heating Degree Days 0 12  
Month to date heating degree days 0 67  
Since 1 July heating degree days 155 238  
Cooling Degree Days 3 0  
Month to date cooling degree days 38 2  
Year to date cooling degree days 820 865  
Growing Degree Days 20 (Base 50)    
Moisture  
Dew Point 51 °F    
Average Humidity 50    
Maximum Humidity 63    
Minimum Humidity 37    
Precipitation  
Precipitation T in 0.06 in 2.54 in (2007)
Month to date precipitation T 0.41  
Year to date precipitation 23.88 17.46  
Snow  
Snow 0.00 in 0.00 in 0.40 in (1990)
Month to date snowfall 0.0 0.1  
Since 1 July snowfall 0.0 0.1  
Snow Depth 0.00 in    
Sea Level Pressure  
Sea Level Pressure 29.53 in    
Wind  
Wind Speed 25 mph (SE)    
Max Wind Speed 44 mph    
Max Gust Speed 52 mph    
Visibility 10 miles    
Events Rain , Thunderstorm    
T = Trace of Precipitation, MM = Missing Value Source: NWS Daily Summary

Daily Weather History Graph

Daily Weather History Graph

Search for Another Location

Airport or City:

Trip Planner

Search our weather history database for the weather conditions in past years. The results will help you decide how hot, cold, wet, or windy it might be!

Date:

Astronomy

Oct. 06, 2011 Rise Set
Actual Time 7:44 AM CDT 7:13 PM CDT
Civil Twilight 7:15 AM CDT 7:42 PM CDT
Nautical Twilight 6:42 AM CDT 8:15 PM CDT
Astronomical Twilight 6:08 AM CDT 8:49 PM CDT
Moon 4:37 PM CDT (10/6) 2:23 AM CDT (10/6)
Length of Visible Light 12h 26m
Length of Day
11h 28m
Waxing Gibbous, 75% of the Moon is Illuminated
Oct 6
Waxing Gibbous
Oct 11
Full
Oct 19
Last Quarter
Oct 26
New
Nov 2
First Quarter

Hourly Weather History & Observations

Time (CDT) Temp. Dew Point Humidity Pressure Visibility Wind Dir Wind Speed Gust Speed Precip Events Conditions
12:53 AM 69.8 °F 42.8 °F 38% 29.69 in 10.0 mi SE 20.7 mph 28.8 mph N/A   Clear
1:53 AM 66.9 °F 43.0 °F 42% 29.64 in 10.0 mi SE 19.6 mph 27.6 mph N/A   Clear
2:53 AM 66.0 °F 45.0 °F 47% 29.64 in 10.0 mi SE 21.9 mph 28.8 mph N/A   Clear
3:53 AM 64.9 °F 46.9 °F 52% 29.63 in 10.0 mi SE 15.0 mph - N/A   Clear
4:53 AM 64.0 °F 48.9 °F 58% 29.62 in 10.0 mi SE 15.0 mph - N/A   Clear
5:53 AM 64.0 °F 50.0 °F 60% 29.62 in 10.0 mi SSE 20.7 mph 27.6 mph N/A   Clear
6:53 AM 62.1 °F 48.9 °F 62% 29.60 in 10.0 mi SE 17.3 mph - N/A   Clear
7:53 AM 62.1 °F 48.0 °F 60% 29.60 in 10.0 mi SSE 21.9 mph 29.9 mph N/A   Clear
8:53 AM 64.0 °F 48.0 °F 56% 29.60 in 10.0 mi SSE 31.1 mph 40.3 mph N/A   Clear
9:53 AM 66.0 °F 48.0 °F 52% 29.61 in 10.0 mi SSE 31.1 mph 43.7 mph N/A   Partly Cloudy
10:53 AM 68.0 °F 48.0 °F 49% 29.61 in 10.0 mi SSE 33.4 mph 41.4 mph N/A   Clear
11:53 AM 71.1 °F 50.0 °F 47% 29.58 in 10.0 mi SSE 28.8 mph 41.4 mph N/A   Overcast
12:53 PM 72.0 °F 52.0 °F 49% 29.56 in 10.0 mi SE 29.9 mph 36.8 mph N/A   Mostly Cloudy
1:53 PM 73.0 °F 53.1 °F 49% 29.53 in 10.0 mi SSE 34.5 mph 46.0 mph N/A   Overcast
2:53 PM 72.0 °F 52.0 °F 49% 29.51 in 10.0 mi SSE 34.5 mph 41.4 mph N/A   Clear
3:53 PM 71.1 °F 53.1 °F 53% 29.51 in 10.0 mi SE 21.9 mph 35.7 mph N/A   Overcast
4:53 PM 73.0 °F 53.1 °F 49% 29.49 in 10.0 mi SSE 27.6 mph 38.0 mph N/A   Partly Cloudy
5:53 PM 75.0 °F 52.0 °F 44% 29.45 in 10.0 mi ESE 26.5 mph 36.8 mph N/A   Partly Cloudy
6:53 PM 73.9 °F 54.0 °F 50% 29.41 in 10.0 mi SE 29.9 mph 39.1 mph N/A   Clear
7:53 PM 73.9 °F 54.0 °F 50% 29.39 in 10.0 mi ESE 28.8 mph 36.8 mph N/A   Clear
8:26 PM 77.0 °F 53.6 °F 44% 29.41 in 10.0 mi SE 41.4 mph 51.8 mph N/A Thunderstorm Scattered Clouds
8:53 PM 73.0 °F 54.0 °F 51% 29.48 in 10.0 mi West 20.7 mph 32.2 mph N/A Thunderstorm Mostly Cloudy
9:00 PM 64.4 °F 55.4 °F 73% 29.49 in 10.0 mi West 17.3 mph 27.6 mph N/A Thunderstorm Overcast
9:53 PM 68.0 °F 55.0 °F 63% 29.43 in 10.0 mi ESE 16.1 mph 42.6 mph 0.00 in Thunderstorm Overcast
9:58 PM 66.2 °F 55.4 °F 68% 29.45 in 10.0 mi SE 17.3 mph 31.1 mph N/A Thunderstorm Overcast
10:06 PM 69.8 °F 55.4 °F 60% 29.45 in 10.0 mi ESE 18.4 mph 25.3 mph N/A Thunderstorm Overcast
10:36 PM 75.2 °F 51.8 °F 44% 29.47 in 10.0 mi SSE 27.6 mph 44.9 mph N/A   Overcast
10:53 PM 75.9 °F 51.1 °F 42% 29.43 in 10.0 mi SSE 26.5 mph 42.6 mph N/A   Overcast
11:53 PM 71.1 °F 52.0 °F 51% 29.42 in 10.0 mi South 34.5 mph 51.8 mph 0.00 in Rain Light Rain